Terminal Aerodrome Forecast
Issued by NWS

Home | Current Version | Previous Version | Text Only | Print | Product List | Glossary On
Versions: 1 2 3 4 5 6 7 8 9 10 11 12
869
FTPA31 PHFO 140532
TAFSTU
TAF
NSTU 140532Z 1406/1506 VRB05KT P6SM SCT025 SCT040 BKN100
     FM142000 31008KT P6SM SCT020 SCT040 BKN100
      AMD NOT SKED=

USA.gov is the U.S. government's official web portal to all federal, state and local government web resources and services.